Dryden, TX

11:35 PM CDT on March 22, 2017 (GMT -0500)
Dryden

Weather History for K6R6 - April, 2013

Change the Weather History Date:

Wednesday, April 17, 2013

  Actual Average (KFST) Record (KFST)
Temperature  
Mean Temperature 86 °F -  
Max Temperature 100 °F 81 °F 98 °F (2011)
Min Temperature 73 °F 52 °F 43 °F (1999)
Cooling Degree Days 22    
Growing Degree Days 36 (Base 50)    
Moisture  
Dew Point 53 °F    
Average Humidity 50    
Maximum Humidity 81    
Minimum Humidity 4    
Precipitation  
Precipitation 0.00 in - - ()
Sea Level Pressure  
Sea Level Pressure 29.58 in    
Wind  
Wind Speed 12 mph (SSE)    
Max Wind Speed 25 mph    
Max Gust Speed 32 mph    
Averages and records for this station are not official NWS values.
T = Trace of Precipitation, MM = Missing Value Source: NWS Daily Summary

Daily Weather History Graph

Daily Weather History Graph

Search for Another Location

Airport or City:

Trip Planner

Search our weather history database for the weather conditions in past years. The results will help you decide how hot, cold, wet, or windy it might be!

Date:

Astronomy

Apr. 17, 2013 Rise Set
Actual Time 7:19 AM CDT 8:17 PM CDT
Civil Twilight 6:54 AM CDT 8:42 PM CDT
Nautical Twilight 6:25 AM CDT 9:11 PM CDT
Astronomical Twilight 5:55 AM CDT 9:41 PM CDT
Moon 12:43 PM CDT (4/17) 1:48 AM CDT (4/17)
Length of Visible Light 13h 47m
Length of Day
12h 58m
Waxing Crescent, 42% of the Moon is Illuminated
Apr 17
Waxing Crescent
Apr 18
First Quarter
Apr 25
Full
May 2
Last Quarter
May 9
New

Hourly Weather History & Observations

Time (CDT) Temp. Heat Index Dew Point Humidity Pressure Visibility Wind Dir Wind Speed Gust Speed Precip Events Conditions
12:53 AM 75.9 °F - 66.0 °F 71% 29.67 in - East 16.1 mph 25.3 mph N/A   Unknown
1:53 AM 73.9 °F - 66.0 °F 76% 29.68 in - East 13.8 mph 23.0 mph N/A   Unknown
2:53 AM 73.9 °F - 66.0 °F 76% 29.67 in - ESE 10.4 mph - N/A   Unknown
3:53 AM 73.0 °F - 66.0 °F 79% 29.66 in - ESE 12.7 mph - N/A   Unknown
4:53 AM 73.0 °F - 66.9 °F 81% 29.65 in - ESE 11.5 mph 18.4 mph N/A   Unknown
5:53 AM 73.0 °F - 66.9 °F 81% 29.64 in - ESE 11.5 mph - N/A   Unknown
6:53 AM 73.0 °F - 66.9 °F 81% 29.65 in - SE 9.2 mph - N/A   Unknown
7:53 AM 73.0 °F - 66.9 °F 81% 29.65 in - SE 11.5 mph - N/A   Unknown
8:53 AM 73.9 °F - 66.9 °F 79% 29.66 in - SE 6.9 mph - N/A   Unknown
9:53 AM 75.9 °F - 66.9 °F 74% 29.66 in - SSE 9.2 mph - N/A   Unknown
10:53 AM 80.1 °F 82.1 °F 66.0 °F 62% 29.65 in - SSE 6.9 mph - N/A   Unknown
11:53 AM 84.0 °F 86.3 °F 66.0 °F 55% 29.64 in - Variable 3.5 mph - N/A   Unknown
12:53 PM 89.1 °F 88.0 °F 57.9 °F 35% 29.59 in - SSW 10.4 mph 18.4 mph N/A   Unknown
1:53 PM 95.0 °F - 43.0 °F 17% 29.55 in - WSW 12.7 mph 21.9 mph N/A   Unknown
2:53 PM 98.1 °F - 27.0 °F 8% 29.50 in - SSW 18.4 mph 28.8 mph N/A   Unknown
3:53 PM 100.9 °F - 15.1 °F 4% 29.47 in - SW 18.4 mph 26.5 mph N/A   Unknown
4:53 PM 100.9 °F - 5.0 °F 4% 29.45 in - SSW 25.3 mph 32.2 mph N/A   Unknown
5:53 PM 100.0 °F - 1.0 °F 4% 29.44 in - SSW 19.6 mph 25.3 mph N/A   Unknown
6:53 PM 98.1 °F - 3.9 °F 4% 29.44 in - SSW 10.4 mph - N/A   Unknown
7:44 PM 91.4 °F 91.4 °F 60.8 °F 36% 29.58 in - SE 12.7 mph - N/A   Unknown
7:53 PM 90.0 °F 90.0 °F 61.0 °F 38% 29.47 in - SE 8.1 mph 20.7 mph N/A   Unknown
8:53 PM 86.0 °F 86.1 °F 61.0 °F 43% 29.50 in - SSE 8.1 mph - N/A   Unknown
9:53 PM 82.9 °F 82.6 °F 57.9 °F 42% 29.53 in - SSE 9.2 mph - N/A   Unknown
10:53 PM 80.1 °F 81.5 °F 63.0 °F 56% 29.55 in - SE 11.5 mph - N/A   Unknown
11:53 PM 75.9 °F - 64.9 °F 69% 29.55 in - SE 6.9 mph - N/A   Unknown